| time (UTC) | temp F | wind direction | speed MPH | gust MPH | rain 1hr in | rain 24hr in | rain mn in | humidity % | barometer mb |
| 20260505102034 | 61 | 263 | 6.0 | 11.0 | 0.00 | 0.00 | 0.00 | 71 | 1005.5 |
| 20260505101533 | 61 | 221 | 4.0 | 11.0 | 0.00 | 0.00 | 0.00 | 71 | 1005.4 |
| 20260505101032 | 60 | 278 | 5.0 | 13.0 | 0.00 | 0.00 | 0.00 | 71 | 1005.4 |
| 20260505100533 | 60 | 252 | 6.0 | 13.0 | 0.00 | 0.00 | 0.00 | 71 | 1005.3 |
| 20260505100041 | 60 | 246 | 3.0 | 10.0 | 0.00 | 0.00 | 0.00 | 71 | 1005.2 |
| 20260505095533 | 60 | 216 | 4.0 | 16.0 | 0.00 | 0.00 | 0.00 | 71 | 1005.2 |
| 20260505095029 | 60 | 251 | 8.0 | 16.0 | 0.00 | 0.00 | 0.00 | 71 | 1005.2 |
| 20260505094528 | 61 | 267 | 4.0 | 14.0 | 0.00 | 0.00 | 0.00 | 71 | 1005.2 |
| 20260505094027 | 61 | 211 | 6.0 | 14.0 | 0.00 | 0.00 | 0.00 | 71 | 1005.0 |
| 20260505093526 | 61 | 256 | 5.0 | 13.0 | 0.00 | 0.00 | 0.00 | 71 | 1005.0 |
| 20260505093026 | 61 | 259 | 3.0 | 14.0 | 0.00 | 0.00 | 0.00 | 71 | 1004.9 |
| 20260505092525 | 61 | 225 | 5.0 | 11.0 | 0.00 | 0.00 | 0.00 | 71 | 1004.9 |
| 20260505092025 | 61 | 223 | 6.0 | 12.0 | 0.00 | 0.00 | 0.00 | 71 | 1004.9 |
| 20260505091524 | 61 | 250 | 4.0 | 12.0 | 0.00 | 0.00 | 0.00 | 71 | 1004.8 |
| 20260505091024 | 61 | 263 | 7.0 | 12.0 | 0.00 | 0.00 | 0.00 | 70 | 1004.9 |
| 20260505090524 | 61 | 261 | 6.0 | 12.0 | 0.00 | 0.00 | 0.00 | 70 | 1004.8 |
| 20260505090036 | 61 | 239 | 6.0 | 12.0 | 0.00 | 0.00 | 0.00 | 70 | 1004.8 |
| 20260505085521 | 61 | 236 | 6.0 | 11.0 | 0.00 | 0.00 | 0.00 | 70 | 1004.8 |
| 20260505085021 | 61 | 211 | 3.0 | 11.0 | 0.00 | 0.00 | 0.00 | 70 | 1004.8 |
| 20260505084529 | 62 | 265 | 6.0 | 14.0 | 0.00 | 0.00 | 0.00 | 69 | 1004.7 |
| 20260505084019 | 62 | 282 | 7.0 | 14.0 | 0.00 | 0.00 | 0.00 | 69 | 1004.7 |
| 20260505083519 | 62 | 227 | 4.0 | 12.0 | 0.00 | 0.00 | 0.00 | 69 | 1004.7 |
| 20260505083032 | 62 | 227 | 5.0 | 12.0 | 0.00 | 0.00 | 0.00 | 69 | 1004.6 |
| 20260505082518 | 62 | 217 | 7.0 | 15.0 | 0.00 | 0.00 | 0.00 | 69 | 1004.5 |
| 20260505082018 | 62 | 229 | 6.0 | 15.0 | 0.00 | 0.00 | 0.00 | 69 | 1004.5 |
| 20260505081522 | 62 | 254 | 8.0 | 16.0 | 0.00 | 0.00 | 0.00 | 68 | 1004.4 |
| 20260505081017 | 62 | 266 | 9.0 | 16.0 | 0.00 | 0.00 | 0.00 | 68 | 1004.5 |
| 20260505080517 | 62 | 245 | 9.0 | 16.0 | 0.00 | 0.00 | 0.00 | 68 | 1004.4 |
| 20260505080028 | 62 | 252 | 8.0 | 18.0 | 0.00 | 0.00 | 0.00 | 68 | 1004.4 |
| 20260505075515 | 62 | 246 | 8.0 | 18.0 | 0.00 | 0.00 | 0.00 | 67 | 1004.3 |
| 20260505075014 | 62 | 251 | 8.0 | 16.0 | 0.00 | 0.00 | 0.00 | 67 | 1004.3 |
| 20260505074514 | 63 | 244 | 6.0 | 17.0 | 0.00 | 0.00 | 0.00 | 67 | 1004.3 |
| 20260505074013 | 63 | 225 | 7.0 | 17.0 | 0.00 | 0.00 | 0.00 | 67 | 1004.3 |
| 20260505073513 | 63 | 233 | 8.0 | 15.0 | 0.00 | 0.00 | 0.00 | 67 | 1004.2 |
| 20260505073013 | 63 | 211 | 5.0 | 16.0 | 0.00 | 0.00 | 0.00 | 67 | 1004.2 |
| 20260505072512 | 63 | 216 | 6.0 | 16.0 | 0.00 | 0.00 | 0.00 | 67 | 1004.0 |
| 20260505072011 | 62 | 242 | 6.0 | 11.0 | 0.00 | 0.00 | 0.00 | 67 | 1004.0 |
| 20260505071522 | 63 | 253 | 5.0 | 15.0 | 0.00 | 0.00 | 0.00 | 67 | 1004.0 |
| 20260505071010 | 63 | 226 | 6.0 | 16.0 | 0.00 | 0.00 | 0.00 | 67 | 1004.0 |
| 20260505070510 | 63 | 221 | 6.0 | 16.0 | 0.00 | 0.00 | 0.00 | 67 | 1004.0 |
| 20260505070010 | 63 | 236 | 6.0 | 19.0 | 0.00 | 0.00 | 0.00 | 67 | 1004.1 |
| 20260505065509 | 63 | 233 | 6.0 | 19.0 | 0.00 | 0.00 | 0.00 | 67 | 1004.1 |
| 20260505065008 | 63 | 236 | 5.0 | 12.0 | 0.00 | 0.00 | 0.00 | 67 | 1004.0 |
| 20260505064508 | 63 | 203 | 8.0 | 12.0 | 0.00 | 0.00 | 0.00 | 67 | 1004.0 |
| 20260505064007 | 63 | 246 | 6.0 | 16.0 | 0.00 | 0.00 | 0.00 | 67 | 1004.0 |
| 20260505063507 | 63 | 217 | 7.0 | 16.0 | 0.00 | 0.00 | 0.00 | 67 | 1004.1 |
| 20260505063007 | 63 | 252 | 5.0 | 13.0 | 0.00 | 0.00 | 0.00 | 68 | 1004.1 |
| 20260505062506 | 63 | 211 | 6.0 | 19.0 | 0.00 | 0.00 | 0.00 | 68 | 1004.2 |
| 20260505062004 | 63 | 208 | 9.0 | 19.0 | 0.00 | 0.00 | 0.00 | 69 | 1004.2 |
| 20260505061512 | 63 | 213 | 5.0 | 12.0 | 0.00 | 0.00 | 0.00 | 69 | 1004.2 |
| 20260505061004 | 63 | 229 | 4.0 | 12.0 | 0.00 | 0.00 | 0.00 | 69 | 1004.3 |
| 20260505060504 | 63 | 212 | 5.0 | 11.0 | 0.00 | 0.00 | 0.00 | 69 | 1004.4 |
| 20260505055600 | 63 | 242 | 4.0 | 14.0 | 0.00 | 0.00 | 0.00 | 69 | 1004.5 |
| 20260505055059 | 63 | 235 | 7.0 | 14.0 | 0.00 | 0.00 | 0.00 | 69 | 1004.6 |
| 20260505054621 | 63 | 216 | 5.0 | 14.0 | 0.00 | 0.00 | 0.00 | 69 | 1004.6 |
| 20260505054057 | 63 | 232 | 5.0 | 14.0 | 0.00 | 0.00 | 0.00 | 69 | 1004.8 |
| 20260505053555 | 63 | 217 | 6.0 | 12.0 | 0.00 | 0.00 | 0.00 | 69 | 1004.8 |
| 20260505053055 | 63 | 225 | 6.0 | 10.0 | 0.00 | 0.00 | 0.00 | 69 | 1004.8 |
| 20260505052555 | 63 | 220 | 6.0 | 10.0 | 0.00 | 0.00 | 0.00 | 69 | 1004.9 |
| 20260505052155 | 63 | 225 | 5.0 | 10.0 | 0.00 | 0.00 | 0.00 | 69 | 1004.9 |
| 20260505051553 | 63 | 227 | 5.0 | 10.0 | 0.00 | 0.00 | 0.00 | 69 | 1005.0 |
| 20260505051053 | 63 | 188 | 5.0 | 11.0 | 0.00 | 0.00 | 0.00 | 68 | 1005.0 |
| 20260505050553 | 63 | 202 | 6.0 | 13.0 | 0.00 | 0.00 | 0.00 | 68 | 1005.0 |
| 20260505041544 | 62 | 236 | 4.0 | 10.0 | 0.00 | 0.00 | 0.00 | 70 | 1005.1 |
| 20260505041045 | 62 | 240 | 3.0 | 10.0 | 0.00 | 0.00 | 0.00 | 70 | 1005.0 |
| 20260505040543 | 62 | 219 | 4.0 | 10.0 | 0.00 | 0.00 | 0.00 | 70 | 1005.1 |
| 20260505040044 | 62 | 253 | 4.0 | 9.0 | 0.00 | 0.00 | 0.00 | 70 | 1005.1 |
| 20260505035543 | 62 | 231 | 4.0 | 9.0 | 0.00 | 0.00 | 0.00 | 70 | 1005.2 |
| 20260505035042 | 62 | 234 | 5.0 | 11.0 | 0.00 | 0.00 | 0.00 | 70 | 1005.2 |
| 20260505034545 | 62 | 242 | 5.0 | 11.0 | 0.00 | 0.00 | 0.00 | 70 | 1005.2 |
| 20260505034041 | 62 | 211 | 5.0 | 10.0 | 0.00 | 0.00 | 0.00 | 71 | 1005.3 |
| 20260505033541 | 62 | 209 | 6.0 | 11.0 | 0.00 | 0.00 | 0.00 | 70 | 1005.2 |
| 20260505033049 | 62 | 197 | 4.0 | 8.0 | 0.00 | 0.00 | 0.00 | 71 | 1005.2 |
| 20260505032541 | 62 | 223 | 3.0 | 10.0 | 0.00 | 0.00 | 0.00 | 70 | 1005.3 |
| 20260505032044 | 62 | 225 | 4.0 | 13.0 | 0.00 | 0.00 | 0.00 | 70 | 1005.4 |
| 20260505031540 | 62 | 248 | 6.0 | 13.0 | 0.00 | 0.00 | 0.00 | 70 | 1005.4 |
| 20260505031041 | 62 | 208 | 4.0 | 11.0 | 0.00 | 0.00 | 0.00 | 70 | 1005.4 |
| 20260505030543 | 62 | 209 | 5.0 | 11.0 | 0.00 | 0.00 | 0.00 | 70 | 1005.4 |
| 20260505030043 | 62 | 221 | 4.0 | 10.0 | 0.00 | 0.00 | 0.00 | 70 | 1005.4 |
| 20260505025541 | 62 | 224 | 4.0 | 10.0 | 0.00 | 0.00 | 0.00 | 70 | 1005.4 |
| 20260505025043 | 62 | 224 | 4.0 | 9.0 | 0.00 | 0.00 | 0.00 | 69 | 1005.4 |
| 20260505024603 | 62 | 239 | 4.0 | 8.0 | 0.00 | 0.00 | 0.00 | 69 | 1005.4 |
| 20260505024042 | 62 | 253 | 3.0 | 10.0 | 0.00 | 0.00 | 0.00 | 69 | 1005.3 |
| 20260505023539 | 62 | 225 | 3.0 | 10.0 | 0.00 | 0.00 | 0.00 | 69 | 1005.4 |
| 20260505023041 | 62 | 218 | 3.0 | 10.0 | 0.00 | 0.00 | 0.00 | 69 | 1005.4 |
| 20260505022539 | 62 | 238 | 3.0 | 7.0 | 0.00 | 0.00 | 0.00 | 68 | 1005.4 |
| 20260505022039 | 62 | 217 | 2.0 | 7.0 | 0.00 | 0.00 | 0.00 | 68 | 1005.6 |
| 20260505021551 | 62 | 243 | 2.0 | 7.0 | 0.00 | 0.00 | 0.00 | 68 | 1005.6 |
| 20260505021039 | 62 | 257 | 1.0 | 7.0 | 0.00 | 0.00 | 0.00 | 67 | 1005.6 |
| 20260505020538 | 62 | 207 | 3.0 | 7.0 | 0.00 | 0.00 | 0.00 | 67 | 1005.6 |
| 20260505020045 | 62 | 242 | 3.0 | 7.0 | 0.00 | 0.00 | 0.00 | 67 | 1005.7 |
| 20260505015538 | 62 | 220 | 3.0 | 8.0 | 0.00 | 0.00 | 0.00 | 67 | 1005.6 |
| 20260505015038 | 62 | 241 | 3.0 | 9.0 | 0.00 | 0.00 | 0.00 | 67 | 1005.5 |
| 20260505014538 | 63 | 225 | 3.0 | 9.0 | 0.00 | 0.00 | 0.00 | 66 | 1005.5 |
| 20260505014037 | 63 | 228 | 4.0 | 9.0 | 0.00 | 0.00 | 0.00 | 66 | 1005.4 |
| 20260505013540 | 63 | 256 | 3.0 | 8.0 | 0.00 | 0.00 | 0.00 | 66 | 1005.4 |
| 20260505013037 | 63 | 205 | 3.0 | 9.0 | 0.00 | 0.00 | 0.00 | 66 | 1005.4 |
| 20260505012537 | 63 | 180 | 4.0 | 9.0 | 0.00 | 0.00 | 0.00 | 65 | 1005.4 |
| 20260505012037 | 63 | 226 | 3.0 | 7.0 | 0.00 | 0.00 | 0.00 | 65 | 1005.3 |
| 20260505011548 | 63 | 248 | 3.0 | 9.0 | 0.00 | 0.00 | 0.00 | 65 | 1005.3 |
| 20260505011037 | 63 | 236 | 3.0 | 9.0 | 0.00 | 0.00 | 0.00 | 65 | 1005.4 |
| 20260505010536 | 63 | 236 | 3.0 | 7.0 | 0.00 | 0.00 | 0.00 | 64 | 1005.4 |
| 20260505010037 | 63 | 229 | 3.0 | 9.0 | 0.00 | 0.00 | 0.00 | 64 | 1005.3 |
| 20260505005536 | 64 | 225 | 4.0 | 9.0 | 0.00 | 0.00 | 0.00 | 64 | 1005.2 |
| 20260505005036 | 64 | 229 | 4.0 | 10.0 | 0.00 | 0.00 | 0.00 | 64 | 1005.2 |
| 20260505004542 | 64 | 259 | 3.0 | 10.0 | 0.00 | 0.00 | 0.00 | 63 | 1005.1 |
| 20260505004034 | 64 | 213 | 4.0 | 9.0 | 0.00 | 0.00 | 0.00 | 63 | 1005.1 |
| 20260505003535 | 64 | 240 | 5.0 | 12.0 | 0.00 | 0.00 | 0.00 | 62 | 1005.1 |
| 20260505003034 | 64 | 229 | 4.0 | 12.0 | 0.00 | 0.00 | 0.00 | 62 | 1005.1 |
| 20260505002534 | 64 | 248 | 4.0 | 11.0 | 0.00 | 0.00 | 0.00 | 62 | 1005.0 |
| 20260505002034 | 65 | 216 | 5.0 | 14.0 | 0.00 | 0.00 | 0.00 | 61 | 1005.0 |
| 20260505001534 | 65 | 244 | 8.0 | 14.0 | 0.00 | 0.00 | 0.00 | 61 | 1004.9 |
| 20260505001035 | 65 | 229 | 6.0 | 14.0 | 0.00 | 0.00 | 0.00 | 61 | 1004.8 |
| 20260505000535 | 65 | 239 | 6.0 | 18.0 | 0.00 | 0.00 | 0.00 | 60 | 1004.8 |
| 20260505000033 | 65 | 234 | 9.0 | 18.0 | 0.00 | 0.00 | 0.00 | 60 | 1004.9 |
| 20260504235534 | 66 | 242 | 7.0 | 19.0 | 0.00 | 0.00 | 0.00 | 59 | 1004.9 |
| 20260504235036 | 66 | 244 | 8.0 | 24.0 | 0.00 | 0.00 | 0.00 | 59 | 1004.9 |
| 20260504234634 | 66 | 235 | 11.0 | 26.0 | 0.00 | 0.00 | 0.00 | 58 | 1005.0 |
| 20260504234038 | 67 | 222 | 15.0 | 27.0 | 0.00 | 0.00 | 0.00 | 58 | 1004.8 |
| 20260504233532 | 67 | 243 | 7.0 | 22.0 | 0.00 | 0.00 | 0.00 | 58 | 1004.9 |
| 20260504233037 | 67 | 248 | 9.0 | 22.0 | 0.00 | 0.00 | 0.00 | 57 | 1004.8 |
| 20260504232531 | 67 | 257 | 9.0 | 18.0 | 0.00 | 0.00 | 0.00 | 57 | 1004.7 |
| 20260504232031 | 68 | 261 | 6.0 | 26.0 | 0.00 | 0.00 | 0.00 | 56 | 1004.8 |
| 20260504231530 | 68 | 231 | 9.0 | 26.0 | 0.00 | 0.00 | 0.00 | 56 | 1004.8 |
| 20260504231030 | 68 | 234 | 8.0 | 16.0 | 0.00 | 0.00 | 0.00 | 56 | 1004.8 |
| 20260504230529 | 68 | 235 | 7.0 | 19.0 | 0.00 | 0.00 | 0.00 | 57 | 1004.9 |
| 20260504230029 | 68 | 205 | 10.0 | 19.0 | 0.00 | 0.00 | 0.00 | 56 | 1005.0 |
| 20260504225532 | 68 | 254 | 7.0 | 17.0 | 0.00 | 0.00 | 0.00 | 57 | 1005.0 |
| 20260504225030 | 68 | 249 | 7.0 | 17.0 | 0.00 | 0.00 | 0.00 | 56 | 1005.0 |
| 20260504224528 | 68 | 249 | 8.0 | 16.0 | 0.00 | 0.00 | 0.00 | 56 | 1005.1 |
| 20260504224028 | 68 | 227 | 5.0 | 16.0 | 0.00 | 0.00 | 0.00 | 57 | 1005.1 |
| 20260504223528 | 68 | 212 | 8.0 | 16.0 | 0.00 | 0.00 | 0.00 | 55 | 1005.1 |
| 20260504223034 | 69 | 244 | 7.0 | 17.0 | 0.00 | 0.00 | 0.00 | 56 | 1005.1 |
| 20260504222528 | 69 | 271 | 9.0 | 22.0 | 0.00 | 0.00 | 0.00 | 55 | 1005.1 |
| 20260504222027 | 69 | 205 | 11.0 | 22.0 | 0.00 | 0.00 | 0.00 | 54 | 1005.0 |
| 20260504221533 | 69 | 231 | 11.0 | 21.0 | 0.00 | 0.00 | 0.00 | 55 | 1005.1 |
| 20260504221026 | 69 | 232 | 10.0 | 22.0 | 0.00 | 0.00 | 0.00 | 55 | 1005.0 |
| 20260504220528 | 69 | 217 | 12.0 | 22.0 | 0.00 | 0.00 | 0.00 | 55 | 1005.1 |
| 20260504220026 | 70 | 237 | 12.0 | 24.0 | 0.00 | 0.00 | 0.00 | 55 | 1005.1 |
| 20260504215526 | 70 | 259 | 11.0 | 27.0 | 0.00 | 0.00 | 0.00 | 54 | 1005.1 |
| 20260504215025 | 70 | 248 | 9.0 | 27.0 | 0.00 | 0.00 | 0.00 | 55 | 1005.2 |
| 20260504214526 | 70 | 265 | 12.0 | 23.0 | 0.00 | 0.00 | 0.00 | 54 | 1005.1 |
| 20260504214024 | 70 | 266 | 9.0 | 30.0 | 0.00 | 0.00 | 0.00 | 54 | 1005.1 |
| 20260504213525 | 70 | 196 | 13.0 | 30.0 | 0.00 | 0.00 | 0.00 | 54 | 1005.1 |
| 20260504213023 | 70 | 177 | 10.0 | 25.0 | 0.00 | 0.00 | 0.00 | 56 | 1005.1 |
| 20260504212523 | 69 | 250 | 13.0 | 25.0 | 0.00 | 0.00 | 0.00 | 54 | 1005.3 |
| 20260504212022 | 70 | 260 | 13.0 | 21.0 | 0.00 | 0.00 | 0.00 | 54 | 1005.2 |
| 20260504211522 | 70 | 252 | 10.0 | 17.0 | 0.00 | 0.00 | 0.00 | 55 | 1005.4 |
| 20260504211122 | 70 | 201 | 8.0 | 21.0 | 0.00 | 0.00 | 0.00 | 55 | 1005.3 |
| 20260504210526 | 69 | 252 | 12.0 | 21.0 | 0.00 | 0.00 | 0.00 | 55 | 1005.4 |
| 20260504210023 | 70 | 219 | 9.0 | 19.0 | 0.00 | 0.00 | 0.00 | 54 | 1005.4 |
| 20260504205524 | 70 | 261 | 9.0 | 18.0 | 0.00 | 0.00 | 0.00 | 54 | 1005.4 |
| 20260504205021 | 70 | 245 | 10.0 | 20.0 | 0.00 | 0.00 | 0.00 | 54 | 1005.4 |
| 20260504204524 | 69 | 244 | 11.0 | 21.0 | 0.00 | 0.00 | 0.00 | 55 | 1005.4 |
| 20260504204020 | 70 | 250 | 9.0 | 21.0 | 0.00 | 0.00 | 0.00 | 56 | 1005.4 |
| 20260504203520 | 69 | 238 | 9.0 | 24.0 | 0.00 | 0.00 | 0.00 | 56 | 1005.3 |
| 20260504203019 | 69 | 226 | 12.0 | 24.0 | 0.00 | 0.00 | 0.00 | 55 | 1005.3 |
| 20260504202519 | 69 | 250 | 13.0 | 24.0 | 0.00 | 0.00 | 0.00 | 54 | 1005.4 |
| 20260504202018 | 70 | 227 | 13.0 | 24.0 | 0.00 | 0.00 | 0.00 | 54 | 1005.4 |
| 20260504201518 | 70 | 240 | 8.0 | 19.0 | 0.00 | 0.00 | 0.00 | 54 | 1005.4 |
| 20260504201017 | 70 | 218 | 8.0 | 19.0 | 0.00 | 0.00 | 0.00 | 56 | 1005.5 |
| 20260504200519 | 70 | 226 | 8.0 | 16.0 | 0.00 | 0.00 | 0.00 | 54 | 1005.4 |
| 20260504200018 | 70 | 264 | 8.0 | 19.0 | 0.00 | 0.00 | 0.00 | 54 | 1005.6 |
| 20260504195516 | 70 | 251 | 11.0 | 21.0 | 0.00 | 0.00 | 0.00 | 54 | 1005.6 |
| 20260504195015 | 70 | 211 | 7.0 | 21.0 | 0.00 | 0.00 | 0.00 | 54 | 1005.7 |
| 20260504194514 | 70 | 210 | 7.0 | 21.0 | 0.00 | 0.00 | 0.00 | 56 | 1005.7 |
| 20260504194014 | 69 | 196 | 9.0 | 22.0 | 0.00 | 0.00 | 0.00 | 55 | 1005.7 |
| 20260504193512 | 69 | 246 | 11.0 | 22.0 | 0.00 | 0.00 | 0.00 | 57 | 1005.8 |
| 20260504193010 | 69 | 207 | 7.0 | 17.0 | 0.00 | 0.00 | 0.00 | 56 | 1006.0 |
| 20260504192510 | 68 | 234 | 8.0 | 19.0 | 0.00 | 0.00 | 0.00 | 57 | 1006.1 |
| 20260504192009 | 69 | 246 | 10.0 | 19.0 | 0.00 | 0.00 | 0.00 | 55 | 1006.2 |
| 20260504191513 | 69 | 207 | 7.0 | 19.0 | 0.00 | 0.00 | 0.00 | 57 | 1006.2 |
| 20260504191108 | 69 | 180 | 9.0 | 22.0 | 0.00 | 0.00 | 0.00 | 56 | 1006.2 |
| 20260504190506 | 69 | 248 | 6.0 | 21.0 | 0.00 | 0.00 | 0.00 | 57 | 1006.4 |
| 20260504190006 | 68 | 227 | 13.0 | 21.0 | 0.00 | 0.00 | 0.00 | 55 | 1006.4 |
| 20260504185504 | 68 | 234 | 6.0 | 19.0 | 0.00 | 0.00 | 0.00 | 57 | 1006.5 |
| 20260504185003 | 68 | 261 | 5.0 | 20.0 | 0.00 | 0.00 | 0.00 | 59 | 1006.5 |
| 20260504184503 | 68 | 244 | 11.0 | 19.0 | 0.00 | 0.00 | 0.00 | 56 | 1006.5 |
| 20260504184002 | 68 | 234 | 10.0 | 19.0 | 0.00 | 0.00 | 0.00 | 56 | 1006.6 |
| 20260504183600 | 68 | 228 | 4.0 | 16.0 | 0.00 | 0.00 | 0.00 | 60 | 1006.6 |
| 20260504183105 | 67 | 241 | 8.0 | 20.0 | 0.00 | 0.00 | 0.00 | 57 | 1006.7 |
| 20260504182557 | 67 | 247 | 11.0 | 20.0 | 0.00 | 0.00 | 0.00 | 56 | 1006.5 |
| 20260504182057 | 67 | 236 | 7.0 | 18.0 | 0.00 | 0.00 | 0.00 | 58 | 1006.7 |
| 20260504181556 | 67 | 236 | 8.0 | 17.0 | 0.00 | 0.00 | 0.00 | 57 | 1006.7 |
| 20260504181056 | 67 | 284 | 10.0 | 17.0 | 0.00 | 0.00 | 0.00 | 57 | 1006.7 |
| 20260504180556 | 67 | 213 | 8.0 | 18.0 | 0.00 | 0.00 | 0.00 | 58 | 1006.8 |
| 20260504180054 | 67 | 217 | 9.0 | 18.0 | 0.00 | 0.00 | 0.00 | 57 | 1006.9 |
| 20260504175553 | 66 | 241 | 6.0 | 17.0 | 0.00 | 0.00 | 0.00 | 59 | 1007.1 |
| 20260504175052 | 66 | 225 | 4.0 | 16.0 | 0.00 | 0.00 | 0.00 | 59 | 1007.1 |
| 20260504174552 | 66 | 225 | 8.0 | 16.0 | 0.00 | 0.00 | 0.00 | 58 | 1007.0 |
| 20260504174051 | 66 | 248 | 8.0 | 17.0 | 0.00 | 0.00 | 0.00 | 59 | 1007.1 |
| 20260504173549 | 65 | 170 | 7.0 | 17.0 | 0.00 | 0.00 | 0.00 | 59 | 1007.1 |
| 20260504173048 | 65 | 229 | 6.0 | 18.0 | 0.00 | 0.00 | 0.00 | 58 | 1007.3 |
| 20260504172548 | 65 | 246 | 8.0 | 19.0 | 0.00 | 0.00 | 0.00 | 58 | 1007.3 |
| 20260504172047 | 65 | 214 | 9.0 | 19.0 | 0.00 | 0.00 | 0.00 | 58 | 1007.4 |
| 20260504171547 | 65 | 258 | 6.0 | 19.0 | 0.00 | 0.00 | 0.00 | 60 | 1007.3 |
| 20260504171045 | 65 | 211 | 8.0 | 20.0 | 0.00 | 0.00 | 0.00 | 58 | 1007.5 |
| 20260504170545 | 65 | 223 | 9.0 | 20.0 | 0.00 | 0.00 | 0.00 | 59 | 1007.5 |
| 20260504151020 | 60 | 185 | 4.0 | 12.0 | 0.00 | 0.00 | 0.00 | 61 | 1008.8 |
| 20260504150519 | 60 | 207 | 6.0 | 12.0 | 0.00 | 0.00 | 0.00 | 61 | 1008.8 |
| 20260504141004 | 57 | 250 | 9.0 | 19.0 | 0.00 | 0.00 | 0.00 | 62 | 1009.3 |
| 20260504140507 | 57 | 244 | 9.0 | 14.0 | 0.00 | 0.00 | 0.00 | 62 | 1009.3 |
| 20260504130548 | 54 | 269 | 5.0 | 16.0 | 0.00 | 0.00 | 0.00 | 65 | 1009.6 |
| 20260504110512 | 47 | 203 | 4.0 | 10.0 | 0.00 | 0.00 | 0.00 | 70 | 1009.4 |